Location: Albuquerque Trailhead
(34.7934°N, 106.3736°W)
Time: 00:34:32
(UTC+00:00)

SPOT 5 - Pass Details

Date: 20 June 2021
Orbit: 622 x 815 km, 98.2° (Epoch: 01 August)

Event Time Altitude Azimuth Distance (km) Brightness Sun altitude
Exits shadow 04:16:01 31° 106° (ESE) 1,334 3.8 -19.0°
Maximum altitude 04:17:25 37° 72° (ENE) 1,180 3.8 -19.2°
Drops below altitude 10° 04:21:57 10° 6° (N) 2,247 6.0 -19.8°
Sets 04:24:19 0° 358° (N) 3,141 7.0 -20.1°
